Powrót do katalogu

NOAA 16 DEB

AktywnySSO
NORAD 41164·DEBRIS·🇺🇸 United States

Wystrzelony Sep 21, 2000 z Vandenberg Space Force Base

Loading…

Następne Przeloty (najbliższe 24 godziny)

TLE

ŚwieżeSource: Space-Track

Epoka: Sep 12, 2026, 11:00 UTC

1 41164U 00055CX  26255.45844390  .00003403  00000-0  15404-2 0  9999
2 41164  98.9651 339.6961 0058353 139.7007 220.8516 14.21760132552467

Śledź NOAA 16 DEB w czasie rzeczywistym z AllMySat

Download on the App Store